ASTRA 1M

Last updated on Thu Jul 03 2025 00:02:45 GMT+0000 (Coordinated Universal Time)

1 33436U 08057A 25183.49891591 .00000127 00000+0 00000+0 0 9992 2 33436 0.0150 343.9964 0005456 141.4369 354.1433 1.00275140 42237
UTC large
Height (km)
Speed (km/s)
/
Latitude / Longitude
Inclination (degrees)
Orbital Period (minutes)
Azimuth
Elevation
Range (km)
Doppler Factor

Next 0 passes for location: London (51.5072 / 0.1276)

Sorry there are no passes over London.